YF1 ZZZZ-CYXU

Flight info

Callsign YF1
Flight time N/A
Altitude 5000
Route DCT
Aircraft BE58

Departure

Time N/A
Airport ZZZZ

Arrival

Time 2026-04-25 01:37
Airport London International Airport (CYXU)
Time Latitude Longitude Altitude Speed Heading
2026-04-25 01:07 43.00028 -82.12530 4008 ft 187 kts 97°
2026-04-25 01:07 42.99912 -82.10758 4011 ft 188 kts 97°
2026-04-25 01:07 42.99911 -82.08977 4013 ft 189 kts 88°
2026-04-25 01:08 42.99993 -82.07185 4009 ft 189 kts 89°
2026-04-25 01:08 43.00058 -82.05385 4015 ft 190 kts 89°
2026-04-25 01:08 43.00123 -82.03580 4007 ft 191 kts 89°
2026-04-25 01:08 43.00202 -82.01769 4003 ft 191 kts 89°
2026-04-25 01:09 43.00273 -81.99962 4031 ft 189 kts 87°
2026-04-25 01:09 43.00344 -81.98157 4014 ft 191 kts 89°
2026-04-25 01:09 43.00413 -81.96348 4013 ft 190 kts 89°
2026-04-25 01:09 43.00484 -81.94551 4010 ft 189 kts 89°
2026-04-25 01:10 43.00554 -81.92761 4008 ft 188 kts 89°
2026-04-25 01:10 43.00624 -81.90976 4007 ft 188 kts 89°
2026-04-25 01:10 43.00694 -81.89195 3999 ft 188 kts 89°
2026-04-25 01:10 43.00762 -81.87418 4007 ft 187 kts 89°
2026-04-25 01:11 43.00831 -81.85639 3999 ft 188 kts 89°
2026-04-25 01:11 43.00919 -81.83857 4006 ft 188 kts 88°
2026-04-25 01:11 43.00960 -81.82074 4009 ft 188 kts 90°
2026-04-25 01:11 43.01002 -81.80293 4018 ft 188 kts 90°
2026-04-25 01:12 43.01045 -81.78504 4018 ft 188 kts 90°
2026-04-25 01:12 43.01087 -81.76722 4017 ft 188 kts 90°
2026-04-25 01:12 43.01129 -81.74943 4017 ft 187 kts 90°
2026-04-25 01:12 43.01171 -81.73164 4016 ft 188 kts 90°
2026-04-25 01:13 43.01210 -81.71442 4130 ft 182 kts 90°
2026-04-25 01:13 43.01250 -81.69743 4366 ft 176 kts 90°
2026-04-25 01:13 43.01292 -81.68072 4610 ft 178 kts 90°
2026-04-25 01:13 43.01333 -81.66358 4860 ft 183 kts 90°
2026-04-25 01:14 43.01375 -81.64600 5030 ft 191 kts 90°
2026-04-25 01:14 43.01417 -81.62735 4943 ft 206 kts 90°
2026-04-25 01:14 43.01455 -81.60728 4682 ft 216 kts 90°
2026-04-25 01:14 43.01488 -81.58668 4419 ft 217 kts 92°
2026-04-25 01:15 43.01394 -81.56704 4142 ft 199 kts 97°
2026-04-25 01:15 43.01280 -81.54858 3862 ft 191 kts 95°
2026-04-25 01:15 43.01202 -81.53078 3581 ft 185 kts 95°
2026-04-25 01:15 43.01132 -81.51335 3303 ft 182 kts 95°
2026-04-25 01:16 43.01063 -81.49624 3054 ft 178 kts 94°
2026-04-25 01:16 43.00997 -81.48002 3041 ft 166 kts 95°
2026-04-25 01:16 43.00934 -81.46453 3035 ft 162 kts 95°
2026-04-25 01:16 43.00869 -81.44939 3034 ft 159 kts 95°
2026-04-25 01:17 43.00807 -81.43430 3033 ft 158 kts 95°
2026-04-25 01:17 43.00744 -81.41931 3035 ft 158 kts 95°
2026-04-25 01:17 43.00681 -81.40434 3033 ft 157 kts 95°
2026-04-25 01:17 43.00621 -81.38935 3036 ft 158 kts 93°
2026-04-25 01:18 43.00781 -81.37452 3047 ft 159 kts 80°
2026-04-25 01:18 43.01003 -81.35971 3048 ft 159 kts 81°
2026-04-25 01:18 43.01218 -81.34478 3048 ft 159 kts 81°
2026-04-25 01:18 43.01430 -81.32998 3047 ft 159 kts 81°
2026-04-25 01:19 43.01643 -81.31519 3048 ft 159 kts 81°
2026-04-25 01:19 43.01858 -81.30020 2955 ft 164 kts 81°
2026-04-25 01:19 43.02084 -81.28443 2734 ft 170 kts 81°
2026-04-25 01:19 43.02312 -81.26859 2497 ft 173 kts 80°
2026-04-25 01:20 43.02543 -81.25250 2256 ft 173 kts 80°
2026-04-25 01:20 43.02777 -81.23621 2013 ft 173 kts 79°
2026-04-25 01:20 43.03008 -81.22006 1772 ft 173 kts 79°
2026-04-25 01:20 43.03238 -81.20389 1529 ft 174 kts 79°
2026-04-25 01:21 43.03427 -81.19083 1270 ft 106 kts 80°
2026-04-25 01:21 43.03530 -81.18271 1058 ft 72 kts 86°
2026-04-25 01:21 43.03617 -81.17358 1298 ft 119 kts 81°
2026-04-25 01:21 43.03806 -81.16152 1695 ft 137 kts 77°
2026-04-25 01:22 43.04025 -81.14850 2120 ft 143 kts 78°
2026-04-25 01:22 43.04224 -81.13502 2538 ft 146 kts 80°
2026-04-25 01:22 43.04411 -81.12127 2952 ft 148 kts 84°
2026-04-25 01:22 43.04524 -81.10729 3358 ft 149 kts 85°
2026-04-25 01:23 43.04647 -81.09317 3758 ft 151 kts 84°
2026-04-25 01:23 43.04949 -81.07936 4046 ft 156 kts 57°
2026-04-25 01:23 43.05883 -81.07212 4045 ft 162 kts
2026-04-25 01:23 43.06886 -81.07658 4037 ft 137 kts 317°
2026-04-25 01:24 43.07454 -81.08497 3974 ft 110 kts 323°
2026-04-25 01:24 43.08074 -81.09132 3959 ft 114 kts 322°
2026-04-25 01:24 43.08710 -81.09769 4042 ft 115 kts 325°
2026-04-25 01:24 43.09384 -81.10414 4052 ft 122 kts 326°
2026-04-25 01:25 43.10087 -81.11071 4061 ft 120 kts 326°
2026-04-25 01:25 43.10763 -81.11700 4049 ft 113 kts 326°
2026-04-25 01:25 43.11382 -81.12278 4034 ft 103 kts 327°
2026-04-25 01:25 43.12000 -81.12849 4051 ft 115 kts 326°
2026-04-25 01:26 43.12691 -81.13495 4059 ft 119 kts 326°
2026-04-25 01:26 43.13354 -81.14113 4058 ft 113 kts 326°
2026-04-25 01:26 43.13991 -81.14707 4044 ft 109 kts 326°
2026-04-25 01:26 43.14604 -81.15279 4040 ft 104 kts 326°
2026-04-25 01:27 43.15238 -81.15869 4066 ft 122 kts 326°
2026-04-25 01:27 43.16004 -81.16577 4078 ft 142 kts 326°
2026-04-25 01:27 43.16854 -81.17370 4075 ft 153 kts 326°
2026-04-25 01:28 43.18490 -81.18904 4045 ft 130 kts 326°
2026-04-25 01:28 43.19222 -81.19586 4042 ft 123 kts 325°
2026-04-25 01:28 43.19879 -81.20204 4035 ft 110 kts 326°
2026-04-25 01:28 43.20481 -81.20761 4033 ft 102 kts 326°
2026-04-25 01:29 43.21044 -81.21320 4034 ft 98 kts 310°
2026-04-25 01:29 43.21240 -81.22140 4035 ft 88 kts 262°
2026-04-25 01:29 43.21026 -81.22958 4079 ft 97 kts 222°
2026-04-25 01:29 43.20549 -81.23686 4073 ft 108 kts 225°
2026-04-25 01:30 43.20042 -81.24487 4072 ft 115 kts 224°
2026-04-25 01:30 43.19495 -81.25332 4067 ft 120 kts 224°
2026-04-25 01:30 43.18936 -81.26194 4062 ft 122 kts 224°
2026-04-25 01:30 43.18422 -81.26991 4043 ft 107 kts 223°
2026-04-25 01:31 43.17922 -81.27758 4045 ft 108 kts 223°
2026-04-25 01:31 43.17427 -81.28524 4042 ft 107 kts 223°
2026-04-25 01:31 43.16933 -81.29283 4041 ft 107 kts 223°
2026-04-25 01:31 43.16354 -81.29820 4044 ft 101 kts 186°
2026-04-25 01:32 43.15675 -81.29718 4049 ft 97 kts 152°
2026-04-25 01:32 43.15155 -81.29149 4052 ft 96 kts 138°
2026-04-25 01:32 43.14653 -81.28559 4053 ft 96 kts 138°
2026-04-25 01:32 43.14149 -81.27953 4053 ft 97 kts 138°
2026-04-25 01:33 43.13643 -81.27345 4052 ft 97 kts 138°
2026-04-25 01:33 43.13144 -81.26740 4050 ft 95 kts 138°
2026-04-25 01:33 43.12645 -81.26140 4049 ft 95 kts 138°
2026-04-25 01:33 43.12145 -81.25541 4050 ft 96 kts 137°
2026-04-25 01:34 43.11652 -81.24935 4018 ft 99 kts 137°
2026-04-25 01:34 43.11063 -81.24188 3464 ft 131 kts 136°
2026-04-25 01:34 43.10354 -81.23278 2800 ft 146 kts 135°
2026-04-25 01:34 43.09598 -81.22305 2154 ft 151 kts 135°
2026-04-25 01:35 43.08838 -81.21470 2061 ft 124 kts 138°
2026-04-25 01:35 43.08281 -81.20842 1977 ft 92 kts 135°
2026-04-25 01:35 43.07974 -81.20483 1893 ft 83 kts 133°
2026-04-25 01:35 43.07560 -81.19997 1783 ft 75 kts 133°
2026-04-25 01:36 43.07103 -81.19449 1791 ft 103 kts 135°
2026-04-25 01:36 43.06534 -81.18778 1572 ft 118 kts 135°
2026-04-25 01:36 43.05909 -81.18025 1400 ft 121 kts 135°
2026-04-25 01:36 43.05280 -81.17256 1233 ft 122 kts 135°
2026-04-25 01:37 43.04667 -81.16531 1070 ft 103 kts 136°
2026-04-25 01:37 43.04177 -81.15946 911 ft 82 kts 134°
2026-04-25 01:37 43.03875 -81.15575 894 ft 35 kts 140°
2026-04-25 01:37 43.03678 -81.15331 896 ft 47 kts 138°
2026-04-25 01:38 43.03433 -81.15063 897 ft 32 kts 148°
2026-04-25 01:38 43.03296 -81.15142 896 ft 7 kts 221°
2026-04-25 01:38 43.03295 -81.15144 896 ft 0 kts 220°
2026-04-25 01:38 43.03290 -81.15150 896 ft 3 kts 225°
2026-04-25 01:39 43.03234 -81.15239 896 ft 21 kts 225°